Location: ????????
(55.4717°N, 39.1821°E)
Time: 14:12:40
(UTC+00:00)

Cosmos 921 Rocket - Pass Details

Date: 14 April 2024
Orbit: 567 x 626 km, 75.8° (Epoch: 24 May)

Event Time Altitude Azimuth Distance (km) Brightness Sun altitude
Rises 01:14:00 0° 184° (S) 2,793 6.1 -9.4°
Reaches altitude 10° 01:16:15 10° 178° (S) 1,907 5.3 -9.1°
Maximum altitude 01:20:18 46° 106° (ESE) 809 4.0 -8.6°
Drops below altitude 10° 01:24:27 10° 34° (NNE) 1,957 6.8 -8.1°
Sets 01:26:47 0° 28° (NNE) 2,875 7.6 -7.8°
